sat.trackr.live / text

‹ back to catalog

STARLINK-5348

NORAD 56515 · 2023-065N

PAYLOAD ACTIVE UNKNOWN

§ Identity

Operator
Country
US
Launch date
2023-05-14
Launch site
AFETR
Launch vehicle
Mass (kg)
RCS (m²)

Purposes: comms

External: N2YO · Heavens-Above · Gunter

§ Orbital elements

Epoch: 2026-09-20T11:56:24.037152Z

Period
94.27 min
Inclination
43.0015°
Eccentricity
0.0000996
Mean motion
15.27577223 rev/d
Perigee alt
482.4 km
Apogee alt
483.7 km
Semi-major
6,861.2 km
B*
7.4466e-6
RAAN
192.2558°
Arg perigee
258.4119°
Mean anomaly
101.6620°
Rev number
18,639

§ Raw data

STARLINK-53481 56515U 23065N   26263.49750043 -.00000057  00000+0  74466-5 0  99932 56515  43.0015 192.2558 0000996 258.4119 101.6620 15.27577223186397

JSON: /api/v1/satellites/56515 · /tle

For live sub-satellite position, see the globe view (requires WebGL).

§ Visibility from observer

Set your observer location to see the next 7 days of passes ≥ 10°. The values pass through the URL so the page stays shareable.

No JS? Fill the form by hand. The geolocation button needs JavaScript.